STARLINK-32379, 61851

Orbit data source: Space-Track

STARLINK-32379, 61851 is a payload satellite owned by SpaceX/Seattle (US) in LEO that was launched on Thu, 07 Nov 2024 UTC via an FALCON 9 launch vehicle from the Air Force Eastern Test Range (AFETR). Payload-class satellites include a variety of spacecraft equipped with specific instruments for various scientific and technological missions. These include communications satellites like Starlink; space stations such as the ISS; scientific satellites like the Hubble; Earth observation satellites from companies like Planet Labs, Umbra, and HawkEye 360; GPS; miniature CubeSats for education and research; and military/defense satellites.

Loading next visibility...
Identifier
61851, 2024-202G
Orbit
LEO
Country
Flag of USUS
Related business
Manufacturer
SpaceX/Seattle
Mission
Operational Commercial Communications
Bus & Motor
STARLINK V2M, Unknown motor
Mass
730 kg wet, ~700 kg dry
Launch date (UTC)
2024-11-07 (2 years ago)
Launch vehicle
FALCON 9
Launch site
Air Force Eastern Test Range (AFETR)
Object type
Payload
Rocket body
Debris
Shape & HBR
Box + 2 Pan, 17.7 m
Radar Cross Section
33.884 m², Large (>1 m²)

Expand to show TLE details & history
Last TLE update: 1 day ago

TLE from 1 day ago
0 STARLINK-32379
1 61851U 24202G   26266.18800629  .00000749  00000-0  36738-4 0  9998
2 61851  43.0026 191.2762 0001227 270.7909  89.2802 15.27585293105666
Epoch: 2026-09-23T04:30Z
TLE epoch observation values (Epoch: 2026-09-23T04:30:43.743Z)
Latitude
-0.00002°
Longitude
121.55119°
Altitude
482.798 km
Speed
7.626 km/s
True Right ascension
12h 45m 06s
True Declination
0° 00' 00"
Sunlit
Object was in daylight at epoch
Visualization orbit readout
Latitude
Unknown
Longitude
Unknown
Altitude
Unknown
Speed
Unknown
Apparent Right ascension
Unknown
Apparent Declination
Unknown
Sunlit
N/A
Visualization observer readout
Local Sidereal Time
21:45:16
Azimuth
Unknown
Elevation
Unknown
Doppler factor
Unknown
Orbital elements
Apogee altitude
485.82 km
Perigee altitude
484.136 km
Semi-major axis
6,863.115 km
Eccentricity
0.00012
Inclination
43.0026°
RAAN
191.2762°
Arg. of periapsis
270.7909°
True anomaly
89.29426°
Mean anomaly
89.2802°
Eccentric anomaly
89.28723°
Mean motion
3.81734 °/min
Orbital period
94.31 mins
BSTAR
0.000036738
Loading maneuver chart data...
Computing Atmospheric mass density...
Loading historical data...
Loading historical data...
Loading historical data...
Loading historical data...
Loading historical data...
Loading historical data...
Loading historical data...

Documentation

Showing up to 5 results
|